Weather History for Custer, SD

Change the Weather History Date:

Thursday, April 24, 2014

  Actual Average Record
Temperature  
Mean Temperature 43 °F 42 °F  
Max Temperature 58 °F 54 °F 81 °F (2012)
Min Temperature 27 °F 30 °F 15 °F (1947)
Degree Days  
Heating Degree Days 22 23  
Month to date heating degree days 617 643  
Since 1 July heating degree days 7527 7518  
Cooling Degree Days 0 0  
Month to date cooling degree days 0 0  
Year to date cooling degree days 0 0  
Moisture  
Dew Point 17 °F    
Average Humidity 39    
Maximum Humidity 58    
Minimum Humidity 19    
Precipitation  
Precipitation 0.00 in 0.08 in 1.38 in (1932)
Month to date precipitation 1.21 1.59  
Year to date precipitation 3.74 3.46  
Sea Level Pressure  
Sea Level Pressure 29.80 in    
Wind  
Wind Speed 10 mph (WNW)    
Max Wind Speed 25 mph    
Max Gust Speed 35 mph    
Visibility 10 miles    
Events      
T = Trace of Precipitation, MM = Missing Value Source: NWS Daily Summary

Daily Weather History Graph

Daily Weather History Graph

Search for Another Location

Airport:

Trip Planner

Search our weather history database for the weather conditions in past years. The results will help you decide how hot, cold, wet, or windy it might be!

Date:

Astronomy

Apr. 24, 2014 Rise Set
Actual Time 5:57 AM MDT 7:48 PM MDT
Civil Twilight 5:26 AM MDT 8:19 PM MDT
Nautical Twilight 4:48 AM MDT 8:57 PM MDT
Astronomical Twilight 4:08 AM MDT 9:38 PM MDT
Moon 3:19 AM MDT (4/24) 2:58 PM MDT (4/24)
Length of Visible Light 14h 53m
Length of Day
13h 51m
Waning Crescent, 24% of the Moon is Illuminated
Apr 24
Waning Crescent
Apr 29
New
May 6
First Quarter
May 14
Full
May 21
Last Quarter

Hourly Weather History & Observations

Time (MDT) Temp. Windchill Dew Point Humidity Pressure Visibility Wind Dir Wind Speed Gust Speed Precip Events Conditions
12:53 AM 33.1 °F 28.7 °F 19.0 °F 56% 29.82 in 10.0 mi West 4.6 mph - N/A   Clear
1:53 AM 32.0 °F 27.5 °F 18.0 °F 56% 29.82 in 10.0 mi WNW 4.6 mph - N/A   Clear
2:53 AM 30.9 °F 26.2 °F 16.0 °F 54% 29.83 in 10.0 mi West 4.6 mph - N/A   Clear
3:53 AM 28.0 °F 21.7 °F 16.0 °F 61% 29.85 in 10.0 mi WNW 5.8 mph - N/A   Clear
4:53 AM 28.9 °F 22.8 °F 15.1 °F 56% 29.85 in 10.0 mi WNW 5.8 mph - N/A   Clear
5:53 AM 30.0 °F 24.1 °F 12.9 °F 49% 29.85 in 10.0 mi West 5.8 mph - N/A   Clear
6:53 AM 35.1 °F 29.3 °F 16.0 °F 46% 29.84 in 10.0 mi West 6.9 mph - N/A   Clear
7:53 AM 39.0 °F 34.8 °F 18.0 °F 43% 29.85 in 10.0 mi Variable 5.8 mph - N/A   Clear
8:53 AM 42.1 °F 36.6 °F 18.0 °F 38% 29.84 in 10.0 mi WSW 9.2 mph - N/A   Clear
9:53 AM 48.0 °F - 16.0 °F 28% 29.82 in 10.0 mi West 13.8 mph 21.9 mph N/A   Clear
10:53 AM 50.0 °F - 14.0 °F 24% 29.82 in 10.0 mi WNW 19.6 mph 35.7 mph N/A   Clear
11:53 AM 51.1 °F - 14.0 °F 23% 29.82 in 10.0 mi West 23.0 mph 31.1 mph N/A   Clear
12:53 PM 53.1 °F - 15.1 °F 22% 29.81 in 10.0 mi West 16.1 mph 27.6 mph N/A   Clear
1:53 PM 54.0 °F - 14.0 °F 21% 29.80 in 10.0 mi WNW 18.4 mph 28.8 mph N/A   Partly Cloudy
2:53 PM 55.9 °F - 15.1 °F 20% 29.77 in 10.0 mi West 16.1 mph 20.7 mph N/A   Clear
3:53 PM 55.9 °F - 14.0 °F 19% 29.78 in 10.0 mi West 16.1 mph 35.7 mph N/A   Clear
4:53 PM 55.9 °F - 15.1 °F 20% 29.76 in 10.0 mi WSW 13.8 mph 18.4 mph N/A   Mostly Cloudy
5:53 PM 55.0 °F - 14.0 °F 20% 29.76 in 10.0 mi West 10.4 mph 18.4 mph N/A   Mostly Cloudy
6:53 PM 54.0 °F - 15.1 °F 22% 29.75 in 10.0 mi NNE 3.5 mph - N/A   Overcast
7:53 PM 46.9 °F - 24.1 °F 41% 29.78 in 10.0 mi East 8.1 mph - N/A   Overcast
8:53 PM 46.0 °F 42.5 °F 23.0 °F 40% 29.77 in 10.0 mi ENE 6.9 mph - N/A   Overcast
9:53 PM 45.0 °F 42.6 °F 23.0 °F 42% 29.76 in 10.0 mi NE 4.6 mph - N/A   Overcast
10:53 PM 44.1 °F 41.5 °F 24.1 °F 45% 29.77 in 10.0 mi ENE 4.6 mph - N/A   Overcast
11:53 PM 41.0 °F 39.0 °F 23.0 °F 49% 29.78 in 10.0 mi NNE 3.5 mph - N/A   Clear